Location: Unspecified
(36.5600°N, 136.6600°E)
Time: 19:26:23
(UTC+09:00)

BlueWalker 3 - Pass Details

Date: 22 June 2024
Orbit: 480 x 491 km, 53.2° (Epoch: 19 July)

Event Time Altitude Azimuth Distance (km) Brightness Sun altitude
Rises 00:59:21 0° 327° (NNW) 2,538 6.0 -28.1°
Reaches altitude 10° 01:03:05 10° 5° (N) 1,656 5.5 -27.9°
Maximum altitude 01:04:09 11° 22° (NNE) 1,598 5.4 -27.8°
Drops below altitude 10° 01:05:11 10° 38° (NE) 1,656 5.4 -27.8°
Sets 01:08:55 0° 76° (ENE) 2,534 5.9 -27.5°
